EW7342 Weather Reports


time (UTC)temp
C
wind
direction
speed
KPH
gust
KPH
rain 1hr
cm
rain 24hr
cm
rain mn
cm
humidity
%
barometer
mb
20260508164518 20 175 3.2 8.0 0.00 0.97 0.00 43 1017.5
20260508163519 20 201 1.6 9.7 0.00 0.97 0.00 46 1017.6
20260508162519 20 198 1.6 8.0 0.00 0.97 0.00 48 1017.7
20260508161517 20 192 3.2 9.7 0.00 0.97 0.00 49 1017.9
20260508160517 20 149 3.2 8.0 0.00 0.97 0.00 52 1018.0
20260508155518 19 163 1.6 8.0 0.00 0.97 0.00 50 1018.2
20260508154520 18 0.0 0.0 0.00 0.97 0.00 56 1018.3
20260508153518 18 198 1.6 4.8 0.00 0.97 0.00 50 1018.5
20260508152518 17 343 1.6 4.8 0.00 0.97 0.00 55 1018.4
20260508151518 17 336 1.6 8.0 0.00 0.97 0.00 57 1018.4
20260508150518 16 352 1.6 3.2 0.00 0.97 0.00 60 1018.6
20260508145518 15 350 1.6 3.2 0.00 0.97 0.00 66 1018.6
20260508144539 15 26 0.0 3.2 0.00 0.99 0.00 66 1018.7
20260508143519 15 0.0 0.0 0.00 1.02 0.00 73 1018.7
20260508142519 14 0.0 0.0 0.00 1.02 0.00 77 1018.7
20260508141519 13 128 0.0 6.4 0.00 1.04 0.00 77 1018.8
20260508140519 13 0.0 0.0 0.00 1.07 0.00 86 1018.9
20260508135519 12 0.0 0.0 0.00 1.07 0.00 94 1018.9
20260508134539 12 0.0 0.0 0.00 1.07 0.00 97 1018.8
20260508133520 11 0.0 0.0 0.00 1.07 0.00 99 1018.7
20260508132520 11 0.0 0.0 0.00 1.09 0.00 99 1018.7
20260508131520 11 0.0 0.0 0.00 1.09 0.00 99 1018.6
20260508130520 10 0.0 0.0 0.00 1.09 0.00 99 1018.6
20260508125520 10 0.0 0.0 0.00 1.09 0.00 99 1018.5
20260508124521 10 0.0 0.0 0.00 1.09 0.00 99 1018.4
20260508123521 10 0.0 0.0 0.00 1.12 0.00 99 1018.2
20260508122521 10 0.0 0.0 0.00 1.19 0.00 98 1018.2
20260508121521 11 0.0 0.0 0.00 1.24 0.00 98 1018.1
20260508120521 11 0.0 0.0 0.00 1.35 0.00 98 1018.1
20260508115521 11 0.0 0.0 0.00 1.45 0.00 98 1017.9
20260508114521 11 0.0 0.0 0.00 1.50 0.00 98 1017.7
20260508113521 11 0.0 0.0 0.00 1.52 0.00 98 1017.5
20260508112522 11 0.0 0.0 0.00 1.52 0.00 98 1017.3
20260508111522 11 0.0 0.0 0.00 1.55 0.00 98 1017.2
20260508110542 11 0.0 0.0 0.00 1.57 0.00 98 1017.1
20260508105522 11 0.0 0.0 0.00 1.60 0.00 98 1017.0
20260508104523 11 0.0 0.0 0.00 1.60 0.00 98 1016.8
20260508103522 11 0.0 0.0 0.00 1.60 0.00 98 1016.5
20260508102543 11 0.0 0.0 0.00 1.60 0.00 98 1016.3
20260508101523 11 0.0 0.0 0.00 1.60 0.00 98 1016.2
20260508100523 11 0.0 0.0 0.00 1.60 0.00 98 1016.3
20260508095523 11 0.0 0.0 0.00 1.60 0.00 98 1016.1
20260508094523 11 0.0 0.0 0.00 1.60 0.00 98 1016.1
20260508093524 11 0.0 0.0 0.00 1.63 0.00 98 1016.1
20260508092524 11 0.0 0.0 0.00 1.63 0.00 98 1016.0
20260508091524 11 0.0 0.0 0.00 1.63 0.00 98 1015.9
20260508090524 11 0.0 0.0 0.00 1.63 0.00 98 1015.9
20260508085524 11 0.0 0.0 0.00 1.63 0.00 98 1015.8
20260508084524 11 0.0 0.0 0.00 1.65 0.00 98 1015.8
20260508083524 11 0.0 0.0 0.00 1.65 0.00 98 1015.7
20260508082545 11 0.0 0.0 0.00 1.68 0.00 98 1015.5
20260508081525 11 0.0 0.0 0.00 1.70 0.00 98 1015.5
20260508080525 11 0.0 0.0 0.00 1.78 0.00 98 1015.4
20260508075525 11 0.0 0.0 0.00 1.83 0.00 98 1015.2
20260508074525 11 0.0 0.0 0.00 1.88 0.00 98 1015.2
20260508073526 12 0.0 0.0 0.00 1.98 0.00 98 1015.2
20260508072545 12 0.0 0.0 0.00 2.03 0.00 98 1015.2
20260508071526 12 0.0 0.0 0.00 2.13 0.00 98 1015.1
20260508070526 12 0.0 0.0 0.00 2.21 0.00 98 1015.0
20260508065526 12 0.0 0.0 0.00 2.31 0.00 98 1015.0
20260508064527 12 0.0 0.0 0.00 2.57 0.00 98 1014.9
20260508063526 12 0.0 0.0 0.00 2.97 0.00 98 1015.0
20260508062527 12 0.0 0.0 0.00 3.15 0.00 98 1015.1
20260508061527 12 0.0 0.0 0.00 3.33 0.00 98 1015.1
20260508060527 12 0.0 0.0 0.00 3.45 0.00 98 1015.1
20260508055607 12 0.0 0.0 0.00 3.53 0.00 98 1015.1
20260508054527 12 0.0 0.0 0.00 3.73 0.00 98 1015.1
20260508053547 12 0.0 0.0 0.00 4.04 0.00 98 1015.0
20260508052527 12 0.0 0.0 0.00 4.11 0.00 98 1014.9
20260508051528 12 0.0 0.0 0.00 4.11 0.00 98 1014.9
20260508050528 13 0.0 0.0 0.00 4.11 0.00 98 1014.9
20260508045548 13 0.0 0.0 0.00 4.11 0.00 98 1014.8
20260508044528 13 0.0 0.0 0.00 4.11 0.00 98 1014.7
20260508043529 13 0.0 0.0 0.00 4.11 0.00 98 1014.6
20260508042529 13 0.0 0.0 0.00 4.11 0.00 98 1014.6
20260508041529 13 0.0 0.0 0.00 4.11 0.00 98 1014.5
20260508040549 13 0.0 0.0 0.00 4.11 0.00 98 1014.5
20260508035529 13 0.0 0.0 0.00 4.11 4.11 98 1014.5
20260508034529 13 0.0 0.0 0.00 4.11 4.11 98 1014.4
20260508033529 13 0.0 0.0 0.00 4.11 4.11 98 1014.4
20260508032530 13 0.0 0.0 0.00 4.14 4.11 98 1014.3
20260508031530 13 0.0 0.0 0.00 4.17 4.11 99 1014.4
20260508030530 13 0.0 0.0 0.00 4.24 4.11 99 1014.2
20260508025517 14 0.0 0.0 0.00 4.27 4.11 99 1014.3
20260508024537 14 0.0 0.0 0.00 4.42 4.11 99 1014.2
20260508023517 14 0.0 0.0 0.00 4.57 4.11 99 1014.0
20260508022517 14 0.0 0.0 0.00 4.70 4.11 99 1014.0
20260508021517 14 0.0 0.0 0.00 4.85 4.11 99 1013.8
20260508020517 14 0.0 0.0 0.00 4.88 4.11 99 1013.6
20260508015517 14 0.0 0.0 0.00 5.00 4.11 99 1013.6
20260508014518 14 0.0 0.0 0.00 5.05 4.11 99 1013.3
20260508013518 14 0.0 0.0 0.00 5.59 4.11 99 1013.1
20260508012518 14 0.0 0.0 0.00 5.92 4.11 99 1012.9
20260508011518 14 0.0 0.0 0.00 5.94 4.11 99 1012.9
20260508010539 15 0.0 0.0 0.00 6.02 4.11 99 1012.6
20260508005527 15 12 0.0 0.0 0.03 6.10 4.11 99 1012.6
20260508004519 15 0.0 0.0 0.03 6.17 4.11 99 1012.5
20260508003519 15 0.0 0.0 0.03 6.25 4.11 99 1012.1
20260508002540 15 0.0 0.0 0.05 6.30 4.11 99 1011.9
20260508001519 15 0.0 0.0 0.38 6.30 4.11 99 1011.5
20260508000519 15 0.0 0.0 0.53 6.30 4.11 99 1011.3
20260507235540 15 50 1.6 4.8 0.84 6.30 4.11 98 1011.2
20260507234520 15 0.0 0.0 0.94 6.30 4.09 98 1010.9
20260507233520 15 215 0.0 1.6 0.94 6.30 4.09 97 1010.1
20260507232540 16 16 0.0 3.2 0.91 6.27 4.06 97 1010.0
20260507231521 16 351 3.2 6.4 0.56 5.92 3.73 95 1010.3
20260507230520 17 152 0.0 3.2 0.41 5.77 3.58 94 1010.0
20260507225521 18 8 1.6 6.4 0.13 5.46 3.28 88 1009.6
20260507224521 18 358 1.6 4.8 0.00 5.36 3.15 86 1009.2
20260507223521 20 15 3.2 6.4 0.00 5.36 3.15 84 1008.9
20260507222522 21 359 4.8 6.4 0.00 5.36 3.15 79 1008.7
20260507221538 24 4 4.8 11.3 0.00 5.36 3.15 73 1008.5
20260507220522 25 65 0.0 1.6 0.00 5.36 3.15 72 1007.9
20260507215521 25 201 3.2 8.0 0.00 5.36 3.15 72 1007.8
20260507214519 25 202 3.2 8.0 0.00 5.36 3.15 71 1007.6
20260507213519 25 219 4.8 11.3 0.00 5.36 3.15 69 1007.4
20260507212519 25 197 4.8 11.3 0.00 5.36 3.15 69 1007.4
20260507211520 25 201 4.8 11.3 0.00 5.36 3.15 68 1007.4
20260507210522 25 199 3.2 8.0 0.00 5.36 3.15 68 1007.5
20260507205434 26 0.0 0.0 0.00 5.36 3.15 67 1007.5
20260507205022 25 0.0 0.0 0.00 5.36 3.15 66 1007.6
20260507204023 25 212 1.6 6.4 0.00 5.36 3.15 68 1007.4
20260507203023 24 212 3.2 8.0 0.00 5.36 3.15 69 1007.7
20260507202023 25 169 1.6 6.4 0.00 5.36 3.15 70 1007.8
20260507201020 25 194 3.2 9.7 0.00 5.36 3.15 70 1007.9
20260507200020 25 195 1.6 9.7 0.00 5.36 3.15 68 1007.8
20260507195021 25 201 1.6 8.0 0.00 5.36 3.15 69 1008.1
20260507194023 25 176 1.6 6.4 0.00 5.36 3.15 69 1008.1
20260507193023 25 199 1.6 6.4 0.00 5.36 3.15 70 1008.5
20260507192024 25 179 1.6 8.0 0.00 5.36 3.15 70 1008.7
20260507191024 24 189 1.6 6.4 0.00 5.36 3.15 72 1008.7
20260507190024 24 210 1.6 4.8 0.00 5.36 3.15 72 1008.8
20260507185025 24 0.0 0.0 0.00 5.36 3.15 74 1008.8
20260507184105 23 207 1.6 8.0 0.00 5.36 3.15 74 1008.7
20260507183024 23 201 3.2 6.4 0.00 5.36 3.15 77 1008.9
20260507182025 22 175 1.6 4.8 0.00 5.36 3.15 82 1008.7
20260507181025 22 4 1.6 3.2 0.00 5.36 3.15 85 1008.9
20260507180025 22 17 0.0 3.2 0.00 5.36 3.15 84 1009.0
20260507175026 21 210 0.0 3.2 0.00 5.41 3.15 87 1009.1
20260507174025 20 185 1.6 4.8 0.00 5.59 3.15 87 1009.6
20260507173025 20 0.0 0.0 0.00 5.59 3.15 96 1009.8
20260507172026 20 183 1.6 6.4 0.00 5.59 3.15 99 1009.8
20260507171026 19 151 0.0 4.8 0.00 5.59 3.15 99 1009.4
20260507170026 19 0.0 0.0 0.00 5.59 3.15 99 1009.9